Weather History for Port Hope, MI

Change the Weather History Date:

Saturday, February 9, 2013

  Actual Average Record
Temperature  
Mean Temperature 23 °F -  
Max Temperature 27 °F 29 °F 46 °F (2001)
Min Temperature 19 °F 18 °F 6 °F (2011)
Degree Days  
Heating Degree Days 42    
Moisture  
Dew Point 15 °F    
Average Humidity 70    
Maximum Humidity 81    
Minimum Humidity 60    
Precipitation  
Precipitation 0.00 in - - ()
Sea Level Pressure  
Sea Level Pressure 30.39 in    
Wind  
Wind Speed 7 mph (ENE)    
Max Wind Speed 14 mph    
Max Gust Speed 18 mph    
Averages and records for this station are not official NWS values.
T = Trace of Precipitation, MM = Missing Value Source: NWS Daily Summary

Daily Weather History Graph

Daily Weather History Graph

Search for Another Location

Airport:

Trip Planner

Search our weather history database for the weather conditions in past years. The results will help you decide how hot, cold, wet, or windy it might be!

Date:

Astronomy

Feb. 09, 2013 Rise Set
Actual Time 7:38 AM EST 5:52 PM EST
Civil Twilight 7:08 AM EST 6:23 PM EST
Nautical Twilight 6:34 AM EST 6:57 PM EST
Astronomical Twilight 6:00 AM EST 7:30 PM EST
Moon 6:49 AM EST (2/9) 5:35 PM EST (2/9)
Length of Visible Light 11h 14m
Length of Day
10h 14m
Waning Crescent, 0% of the Moon is Illuminated
Feb 9
Waning Crescent
Feb 10
New
Feb 17
First Quarter
Feb 25
Full
Mar 4
Last Quarter

Hourly Weather History & Observations

Time (EST) Temp. Windchill Dew Point Humidity Pressure Visibility Wind Dir Wind Speed Gust Speed Precip Events Conditions
12:51 AM 25.0 °F 13.1 °F 17.1 °F 72% 30.36 in - North 13.8 mph 18.4 mph N/A   Unknown
1:51 AM 24.1 °F 13.1 °F 18.0 °F 77% 30.37 in - NNE 11.5 mph - N/A   Unknown
2:51 AM 24.1 °F 13.7 °F 15.1 °F 69% 30.37 in - NNE 10.4 mph - N/A   Unknown
3:51 AM 24.1 °F 13.7 °F 17.1 °F 75% 30.39 in - North 10.4 mph - N/A   Unknown
4:51 AM 24.1 °F 17.0 °F 15.1 °F 69% 30.40 in - North 5.8 mph - N/A   Unknown
5:51 AM 24.1 °F 17.0 °F 15.1 °F 69% 30.41 in - North 5.8 mph - N/A   Unknown
6:51 AM 24.1 °F 17.0 °F 15.1 °F 69% 30.42 in - NNE 5.8 mph - N/A   Unknown
7:51 AM 23.0 °F 18.4 °F 14.0 °F 68% 30.44 in - NE 3.5 mph - N/A   Unknown
8:51 AM 24.1 °F - 14.0 °F 65% 30.44 in - Calm Calm - N/A   Unknown
9:51 AM 24.1 °F - 16.0 °F 71% 30.45 in - Calm Calm - N/A   Unknown
10:51 AM 25.0 °F - 16.0 °F 69% 30.45 in - Calm Calm - N/A   Unknown
11:51 AM 25.0 °F - 15.1 °F 66% 30.45 in - Calm Calm - N/A   Unknown
12:51 PM 27.0 °F - 15.1 °F 61% 30.43 in - Calm Calm - N/A   Unknown
1:51 PM 26.1 °F 21.9 °F 14.0 °F 60% 30.41 in - Variable 3.5 mph - N/A   Unknown
2:51 PM 26.1 °F 19.4 °F 15.1 °F 63% 30.39 in - SSE 5.8 mph - N/A   Unknown
3:51 PM 26.1 °F 20.5 °F 15.1 °F 63% 30.38 in - Variable 4.6 mph - N/A   Unknown
4:51 PM 26.1 °F 21.9 °F 14.0 °F 60% 30.37 in - South 3.5 mph - N/A   Unknown
5:51 PM 24.1 °F 19.7 °F 14.0 °F 65% 30.37 in - SSE 3.5 mph - N/A   Unknown
6:51 PM 21.0 °F 16.2 °F 12.9 °F 71% 30.36 in - SSE 3.5 mph - N/A   Unknown
7:51 PM 19.9 °F - 14.0 °F 78% 30.35 in - Calm Calm - N/A   Unknown
8:51 PM 19.9 °F 13.4 °F 15.1 °F 81% 30.34 in - SSE 4.6 mph - N/A   Unknown
9:51 PM 19.9 °F 14.9 °F 14.0 °F 78% 30.34 in - SSE 3.5 mph - N/A   Unknown
10:51 PM 19.9 °F 12.1 °F 14.0 °F 78% 30.32 in - Variable 5.8 mph - N/A   Unknown
11:51 PM 19.0 °F 11.1 °F 14.0 °F 81% 30.31 in - SSE 5.8 mph - N/A   Unknown